Time,TemperatureF,DewpointF,PressureIn,WindDirection,WindDirectionDegrees,WindSpeedMPH,WindSpeedGustMPH,Humidity,HourlyPrecipIn,Conditions,Clouds,dailyrainin,SoftwareType,DateUTC
2017-11-22 00:05:00,37.2,35.0,29.91,NW,308,9.0,13.0,91,0.00,,,0.00,weatherlink.com 1.10,2017-11-22 05:05:00,
2017-11-22 00:20:00,36.4,34.0,29.91,WNW,302,4.0,12.0,92,0.00,,,0.00,weatherlink.com 1.10,2017-11-22 05:20:00,
2017-11-22 00:50:00,35.0,33.0,29.90,NNW,346,3.0,10.0,93,0.00,,,0.00,weatherlink.com 1.10,2017-11-22 05:50:00,
2017-11-22 01:20:00,34.0,32.0,29.91,NNW,327,5.0,8.0,93,0.01,,,0.01,weatherlink.com 1.10,2017-11-22 06:20:00,
2017-11-22 01:35:00,33.7,32.0,29.91,NNW,342,3.0,9.0,93,0.02,,,0.02,weatherlink.com 1.10,2017-11-22 06:35:00,
2017-11-22 01:50:00,33.2,32.0,29.91,NNW,332,1.0,8.0,94,0.02,,,0.02,weatherlink.com 1.10,2017-11-22 06:50:00,
2017-11-22 02:05:00,32.8,31.0,29.92,NW,304,3.0,5.0,94,0.01,,,0.02,weatherlink.com 1.10,2017-11-22 07:05:00,
2017-11-22 02:20:00,32.7,31.0,29.93,NW,312,1.0,5.0,94,0.02,,,0.03,weatherlink.com 1.10,2017-11-22 07:20:00,
2017-11-22 02:35:00,32.7,31.0,29.94,WNW,296,2.0,6.0,94,0.01,,,0.03,weatherlink.com 1.10,2017-11-22 07:35:00,
2017-11-22 02:50:00,32.6,31.0,29.94,North,355,1.0,5.0,94,0.01,,,0.03,weatherlink.com 1.10,2017-11-22 07:50:00,
2017-11-22 03:05:00,32.6,31.0,29.95,NNW,348,2.0,5.0,95,0.02,,,0.04,weatherlink.com 1.10,2017-11-22 08:05:00,
2017-11-22 03:20:00,32.5,31.0,29.95,NW,326,2.0,8.0,95,0.01,,,0.04,weatherlink.com 1.10,2017-11-22 08:20:00,
2017-11-22 03:35:00,32.5,31.0,29.96,NNW,340,2.0,5.0,95,0.01,,,0.04,weatherlink.com 1.10,2017-11-22 08:35:00,
2017-11-22 03:51:00,32.4,31.0,29.96,NNW,346,2.0,6.0,95,0.01,,,0.04,weatherlink.com 1.10,2017-11-22 08:51:00,
2017-11-22 04:06:00,32.4,31.0,29.96,North,360,3.0,4.0,95,0.00,,,0.04,weatherlink.com 1.10,2017-11-22 09:06:00,
2017-11-22 04:21:00,32.4,31.0,29.97,North,360,0.0,4.0,95,0.00,,,0.04,weatherlink.com 1.10,2017-11-22 09:21:00,
2017-11-22 04:36:00,32.5,31.0,29.98,NNW,348,0.0,3.0,95,0.00,,,0.04,weatherlink.com 1.10,2017-11-22 09:36:00,
2017-11-22 04:51:00,32.5,31.0,29.99,North,350,1.0,4.0,95,0.00,,,0.04,weatherlink.com 1.10,2017-11-22 09:51:00,
2017-11-22 05:06:00,32.5,31.0,30.00,NW,317,3.0,6.0,95,0.00,,,0.04,weatherlink.com 1.10,2017-11-22 10:06:00,
2017-11-22 05:21:00,32.4,31.0,30.00,NNW,336,3.0,7.0,95,0.00,,,0.04,weatherlink.com 1.10,2017-11-22 10:21:00,
2017-11-22 05:36:00,32.1,31.0,30.01,NNW,333,3.0,9.0,95,0.00,,,0.04,weatherlink.com 1.10,2017-11-22 10:36:00,
2017-11-22 05:51:00,31.8,31.0,30.02,NNW,342,4.0,8.0,95,0.00,,,0.04,weatherlink.com 1.10,2017-11-22 10:51:00,
2017-11-22 06:06:00,31.5,30.0,30.03,NNE,15,6.0,11.0,95,0.00,,,0.04,weatherlink.com 1.10,2017-11-22 11:06:00,
2017-11-22 06:21:00,31.3,30.0,30.03,North,5,6.0,10.0,95,0.00,,,0.04,weatherlink.com 1.10,2017-11-22 11:21:00,
2017-11-22 06:36:00,31.1,30.0,30.04,North,351,4.0,11.0,95,0.00,,,0.04,weatherlink.com 1.10,2017-11-22 11:36:00,
2017-11-22 06:51:00,31.1,30.0,30.05,North,355,7.0,8.0,95,0.00,,,0.04,weatherlink.com 1.10,2017-11-22 11:51:00,
2017-11-22 07:06:00,31.0,30.0,30.05,North,5,5.0,9.0,95,0.00,,,0.04,weatherlink.com 1.10,2017-11-22 12:06:00,
2017-11-22 07:51:00,30.4,29.0,30.08,North,5,4.0,9.0,95,0.00,,,0.04,weatherlink.com 1.10,2017-11-22 12:51:00,
2017-11-22 08:06:00,30.4,29.0,30.08,NNE,15,4.0,7.0,95,0.00,,,0.04,weatherlink.com 1.10,2017-11-22 13:06:00,
2017-11-22 08:21:00,30.3,29.0,30.09,NNE,13,3.0,10.0,95,0.00,,,0.04,weatherlink.com 1.10,2017-11-22 13:21:00,
2017-11-22 08:36:00,30.3,29.0,30.10,North,360,7.0,11.0,95,0.00,,,0.04,weatherlink.com 1.10,2017-11-22 13:36:00,
2017-11-22 08:51:00,30.0,29.0,30.10,North,349,4.0,13.0,95,0.00,,,0.04,weatherlink.com 1.10,2017-11-22 13:51:00,
2017-11-22 09:06:00,29.7,29.0,30.10,North,360,6.0,11.0,95,0.00,,,0.04,weatherlink.com 1.10,2017-11-22 14:06:00,
2017-11-22 09:36:00,29.6,28.0,30.11,North,5,6.0,9.0,95,0.00,,,0.04,weatherlink.com 1.10,2017-11-22 14:36:00,
2017-11-22 10:06:00,29.7,28.0,30.12,North,351,3.0,9.0,94,0.00,,,0.04,weatherlink.com 1.10,2017-11-22 15:06:00,
2017-11-22 10:36:00,29.7,28.0,30.14,NNW,347,4.0,6.0,93,0.00,,,0.04,weatherlink.com 1.10,2017-11-22 15:36:00,
2017-11-22 11:06:00,29.6,28.0,30.14,NNW,342,6.0,14.0,92,0.00,,,0.04,weatherlink.com 1.10,2017-11-22 16:06:00,
2017-11-22 11:22:00,29.6,27.0,30.14,North,360,4.0,10.0,91,0.00,,,0.04,weatherlink.com 1.10,2017-11-22 16:22:00,
2017-11-22 11:52:00,29.6,27.0,30.14,NW,304,3.0,11.0,89,0.00,,,0.04,weatherlink.com 1.10,2017-11-22 16:52:00,
2017-11-22 12:22:00,29.4,27.0,30.13,NW,323,2.0,9.0,90,0.00,,,0.04,weatherlink.com 1.10,2017-11-22 17:22:00,
2017-11-22 12:52:00,29.4,27.0,30.14,NW,318,1.0,8.0,89,0.00,,,0.04,weatherlink.com 1.10,2017-11-22 17:52:00,
2017-11-22 13:07:00,29.6,27.0,30.15,NNW,348,3.0,7.0,90,0.00,,,0.04,weatherlink.com 1.10,2017-11-22 18:07:00,
2017-11-22 13:37:00,29.4,26.0,30.15,NNW,342,7.0,10.0,86,0.00,,,0.04,weatherlink.com 1.10,2017-11-22 18:37:00,
2017-11-22 13:52:00,29.2,25.0,30.14,NW,315,7.0,10.0,85,0.00,,,0.04,weatherlink.com 1.10,2017-11-22 18:52:00,
2017-11-22 14:22:00,29.2,26.0,30.14,WNW,295,3.0,8.0,87,0.00,,,0.04,weatherlink.com 1.10,2017-11-22 19:22:00,
2017-11-22 14:37:00,29.1,25.0,30.15,WNW,298,4.0,8.0,86,0.00,,,0.04,weatherlink.com 1.10,2017-11-22 19:37:00,
2017-11-22 15:07:00,28.9,26.0,30.15,NW,308,1.0,8.0,87,0.00,,,0.04,weatherlink.com 1.10,2017-11-22 20:07:00,
2017-11-22 15:22:00,28.8,25.0,30.16,WNW,300,3.0,5.0,87,0.00,,,0.04,weatherlink.com 1.10,2017-11-22 20:22:00,
2017-11-22 15:37:00,28.8,25.0,30.17,NNW,340,4.0,7.0,87,0.00,,,0.04,weatherlink.com 1.10,2017-11-22 20:37:00,
2017-11-22 15:52:00,28.9,26.0,30.18,NW,325,3.0,6.0,87,0.00,,,0.04,weatherlink.com 1.10,2017-11-22 20:52:00,